Private Wetterstation Wechselburg
Wetterdaten: Sonntag, 24.03.2013
Datum Zeit Temp. +2m Bodentemp. Temp.+5cm Temp. Wind Windchill X Diff Temp. Feuchte +2m Feuchte +5cm Sonnenschein Luftdruck Regen Wind Richtung Richtung Sonnenschein UV Taupunkt Windchill Windben
24.03.2013 00:00 -8,5 C 7,1 C -8,5 C -10,0 C -13,1 C 0,0 C 64 % 68 % 0 % 1024,6 hPa 0,0 l/m 6,8 km/h (2 Bft) O-NO 67 0 min 0,0 UV-I -14,1 C -17,5 C 5,8 km/h (2 Bft)
24.03.2013 00:05 -8,6 C 7,1 C -8,5 C -10,1 C -13,0 C 0,0 C 64 % 69 % 0 % 1024,6 hPa 0,0 l/m 6,3 km/h (2 Bft) NO 45 0 min 0,0 UV-I -14,2 C -17,1 C 4,2 km/h (1 Bft)
24.03.2013 00:10 -8,5 C 7,1 C -8,5 C -10,0 C -12,9 C 0,0 C 64 % 69 % 0 % 1024,6 hPa 0,0 l/m 6,0 km/h (2 Bft) O-NO 67 0 min 0,0 UV-I -14,1 C -16,9 C 5,1 km/h (1 Bft)
24.03.2013 00:15 -8,7 C 7,1 C -8,7 C -10,2 C -13,1 C 0,0 C 65 % 69 % 0 % 1025,2 hPa 0,0 l/m 6,0 km/h (2 Bft) O-NO 67 0 min 0,0 UV-I -14,1 C -17,1 C 12,6 km/h (3 Bft)
24.03.2013 00:20 -8,7 C 7,1 C -8,7 C -10,2 C -13,1 C 0,0 C 65 % 69 % 0 % 1025,2 hPa 0,0 l/m 5,8 km/h (2 Bft) O 90 0 min 0,0 UV-I -14,1 C -17,0 C 5,6 km/h (1 Bft)
24.03.2013 00:25 -8,8 C 7,1 C -8,8 C -10,3 C -13,2 C 0,0 C 65 % 69 % 0 % 1025,2 hPa 0,0 l/m 6,0 km/h (2 Bft) O-NO 67 0 min 0,0 UV-I -14,2 C -17,2 C 6,9 km/h (2 Bft)
24.03.2013 00:30 -8,9 C 7,1 C -8,8 C -10,3 C -13,1 C 0,0 C 65 % 69 % 0 % 1025,2 hPa 0,0 l/m 5,6 km/h (1 Bft) O-NO 67 0 min 0,0 UV-I -14,3 C -16,8 C 6,6 km/h (2 Bft)
24.03.2013 00:35 -8,9 C 7,1 C -8,9 C -10,2 C -12,9 C 0,0 C 65 % 70 % 0 % 1025,2 hPa 0,0 l/m 5,5 km/h (1 Bft) O-NO 67 0 min 0,0 UV-I -14,3 C -16,6 C 3,9 km/h (1 Bft)
24.03.2013 00:41 -8,9 C 7,1 C -8,9 C -10,3 C -13,1 C 0,0 C 65 % 70 % 0 % 1025,2 hPa 0,0 l/m 5,5 km/h (1 Bft) N 0 0 min 0,0 UV-I -14,3 C -16,8 C 6,8 km/h (2 Bft)
24.03.2013 01:00 -9,2 C 7,1 C -9,1 C -10,6 C -13,3 C 0,0 C 65 % 70 % 0 % 1025,2 hPa 0,0 l/m 5,3 km/h (1 Bft) O-NO 67 0 min 0,0 UV-I -14,5 C -16,9 C 5,0 km/h (1 Bft)
24.03.2013 01:05 -9,1 C 7,1 C -9,2 C -10,7 C -13,9 C 0,0 C 65 % 70 % 0 % 1025,2 hPa 0,0 l/m 6,3 km/h (2 Bft) O-NO 67 0 min 0,0 UV-I -14,4 C -18,2 C 10,6 km/h (2 Bft)
24.03.2013 01:10 -9,3 C 7,1 C -9,3 C -10,9 C -14,1 C 0,0 C 65 % 70 % 0 % 1025,2 hPa 0,0 l/m 6,6 km/h (2 Bft) O-NO 67 0 min 0,0 UV-I -14,6 C -18,6 C 6,6 km/h (2 Bft)
24.03.2013 01:15 -9,3 C 7,1 C -9,3 C -10,9 C -14,1 C 0,0 C 65 % 70 % 0 % 1025,2 hPa 0,0 l/m 6,6 km/h (2 Bft) O-NO 67 0 min 0,0 UV-I -14,6 C -18,6 C 5,6 km/h (1 Bft)
24.03.2013 01:20 -9,3 C 7,1 C -9,3 C -10,9 C -14,2 C 0,0 C 65 % 70 % 0 % 1025,2 hPa 0,0 l/m 6,6 km/h (2 Bft) O-NO 67 0 min 0,0 UV-I -14,6 C -18,7 C 13,2 km/h (3 Bft)
24.03.2013 01:25 -9,3 C 7,1 C -9,3 C -11,0 C -14,5 C 0,0 C 65 % 70 % 0 % 1025,2 hPa 0,0 l/m 7,2 km/h (2 Bft) O 90 0 min 0,0 UV-I -14,6 C -19,4 C 13,5 km/h (3 Bft)
24.03.2013 01:30 -9,5 C 7,1 C -9,5 C -11,2 C -14,6 C 0,0 C 66 % 70 % 0 % 1025,2 hPa 0,0 l/m 7,2 km/h (2 Bft) O-NO 67 0 min 0,0 UV-I -14,6 C -19,5 C 7,6 km/h (2 Bft)
24.03.2013 01:35 -9,5 C 7,1 C -9,5 C -11,1 C -14,4 C 0,0 C 66 % 70 % 0 % 1024,8 hPa 0,0 l/m 6,8 km/h (2 Bft) O-NO 67 0 min 0,0 UV-I -14,6 C -19,0 C 9,0 km/h (2 Bft)
24.03.2013 01:40 -9,6 C 7,1 C -9,5 C -11,3 C -14,6 C 0,0 C 66 % 70 % 0 % 1024,8 hPa 0,0 l/m 7,2 km/h (2 Bft) O-NO 67 0 min 0,0 UV-I -14,7 C -19,5 C 10,9 km/h (2 Bft)
24.03.2013 01:45 -9,6 C 7,1 C -9,6 C -11,2 C -14,5 C 0,0 C 66 % 70 % 0 % 1024,8 hPa 0,0 l/m 6,8 km/h (2 Bft) O-NO 67 0 min 0,0 UV-I -14,7 C -19,2 C 9,5 km/h (2 Bft)
24.03.2013 01:50 -9,7 C 7,1 C -9,6 C -11,3 C -14,4 C 0,0 C 66 % 70 % 0 % 1024,8 hPa 0,0 l/m 6,6 km/h (2 Bft) O-NO 67 0 min 0,0 UV-I -14,8 C -18,9 C 5,6 km/h (1 Bft)
24.03.2013 01:55 -9,7 C 7,1 C -9,7 C -11,4 C -14,7 C 0,0 C 66 % 70 % 0 % 1024,8 hPa 0,0 l/m 6,6 km/h (2 Bft) O-NO 67 0 min 0,0 UV-I -14,8 C -19,3 C 4,7 km/h (1 Bft)
24.03.2013 02:00 -9,7 C 7,1 C -9,7 C -11,1 C -13,9 C 0,0 C 66 % 70 % 0 % 1024,8 hPa 0,0 l/m 5,3 km/h (1 Bft) O 90 0 min 0,0 UV-I -14,8 C -17,6 C 4,0 km/h (1 Bft)
24.03.2013 02:05 -9,8 C 7,1 C -9,7 C -11,0 C -13,4 C 0,0 C 66 % 70 % 0 % 1024,8 hPa 0,0 l/m 4,2 km/h (1 Bft) O-NO 67 0 min 0,0 UV-I -14,9 C -13,4 C 7,2 km/h (2 Bft)
24.03.2013 02:10 -9,7 C 7,1 C -9,7 C -11,0 C -13,5 C 0,0 C 66 % 70 % 0 % 1024,8 hPa 0,0 l/m 4,3 km/h (1 Bft) O-NO 67 0 min 0,0 UV-I -14,8 C -13,5 C 5,5 km/h (1 Bft)
24.03.2013 02:15 -9,9 C 7,1 C -9,9 C -11,1 C -13,5 C 0,0 C 66 % 71 % 0 % 1024,4 hPa 0,0 l/m 4,2 km/h (1 Bft) O-NO 67 0 min 0,0 UV-I -15,0 C -13,5 C 3,9 km/h (1 Bft)
24.03.2013 02:20 -9,9 C 7,1 C -9,9 C -11,1 C -13,6 C 0,0 C 66 % 71 % 0 % 1024,4 hPa 0,0 l/m 4,0 km/h (1 Bft) O-NO 67 0 min 0,0 UV-I -15,0 C -13,6 C 6,8 km/h (2 Bft)
24.03.2013 02:25 -9,9 C 7,0 C -9,9 C -11,1 C -13,6 C 0,0 C 67 % 71 % 0 % 1024,4 hPa 0,0 l/m 4,2 km/h (1 Bft) O-NO 67 0 min 0,0 UV-I -14,8 C -13,6 C 4,8 km/h (1 Bft)
24.03.2013 02:30 -10,0 C 7,0 C -9,9 C -11,2 C -13,6 C 0,0 C 67 % 71 % 0 % 1024,4 hPa 0,0 l/m 4,2 km/h (1 Bft) O 90 0 min 0,0 UV-I -14,9 C -13,6 C 4,3 km/h (1 Bft)
24.03.2013 02:35 -10,0 C 7,0 C -10,0 C -11,1 C -13,4 C 0,0 C 67 % 71 % 0 % 1024,2 hPa 0,0 l/m 3,7 km/h (1 Bft) O-SO 112 0 min 0,0 UV-I -14,9 C -13,4 C 3,7 km/h (1 Bft)
24.03.2013 02:40 -10,1 C 7,0 C -10,1 C -11,2 C -13,3 C 0,0 C 67 % 72 % 0 % 1024,2 hPa 0,0 l/m 3,5 km/h (1 Bft) O-NO 67 0 min 0,0 UV-I -15,0 C -13,3 C 6,6 km/h (2 Bft)
24.03.2013 02:45 -10,1 C 7,0 C -10,1 C -11,2 C -13,5 C 0,0 C 67 % 72 % 0 % 1024,2 hPa 0,0 l/m 3,7 km/h (1 Bft) O 90 0 min 0,0 UV-I -15,0 C -13,5 C 4,3 km/h (1 Bft)
24.03.2013 02:50 -10,1 C 7,0 C -10,1 C -11,4 C -13,9 C 0,0 C 68 % 72 % 0 % 1024,2 hPa 0,0 l/m 4,2 km/h (1 Bft) O-NO 67 0 min 0,0 UV-I -14,9 C -13,9 C 5,8 km/h (2 Bft)
24.03.2013 02:55 -10,2 C 7,0 C -10,1 C -11,6 C -14,4 C 0,0 C 68 % 72 % 0 % 1024,2 hPa 0,0 l/m 4,8 km/h (1 Bft) O-NO 67 0 min 0,0 UV-I -14,9 C -17,8 C 8,7 km/h (2 Bft)
24.03.2013 03:00 -10,1 C 7,0 C -10,1 C -11,5 C -14,4 C 0,0 C 68 % 72 % 0 % 1024,2 hPa 0,0 l/m 5,0 km/h (1 Bft) O-NO 67 0 min 0,0 UV-I -14,9 C -17,9 C 6,9 km/h (2 Bft)
24.03.2013 03:05 -10,1 C 7,0 C -10,1 C -11,6 C -14,6 C 0,0 C 68 % 72 % 0 % 1024,2 hPa 0,0 l/m 5,3 km/h (1 Bft) O-NO 67 0 min 0,0 UV-I -14,9 C -18,4 C 5,3 km/h (1 Bft)
24.03.2013 03:10 -10,1 C 7,0 C -10,2 C -11,7 C -14,8 C 0,0 C 68 % 72 % 0 % 1024,2 hPa 0,0 l/m 5,6 km/h (1 Bft) O-NO 67 0 min 0,0 UV-I -14,9 C -18,8 C 7,6 km/h (2 Bft)
24.03.2013 03:15 -10,1 C 7,0 C -10,1 C -11,7 C -14,9 C 0,0 C 68 % 72 % 0 % 1023,9 hPa 0,0 l/m 5,8 km/h (2 Bft) O-NO 67 0 min 0,0 UV-I -14,9 C -19,0 C 7,2 km/h (2 Bft)
24.03.2013 03:20 -10,3 C 7,0 C -10,1 C -11,8 C -14,9 C 0,0 C 68 % 72 % 0 % 1023,9 hPa 0,0 l/m 5,8 km/h (2 Bft) O-NO 67 0 min 0,0 UV-I -15,0 C -19,0 C 5,0 km/h (1 Bft)
24.03.2013 03:25 -10,3 C 7,0 C -10,1 C -12,0 C -15,3 C 0,0 C 68 % 72 % 0 % 1023,9 hPa 0,0 l/m 6,4 km/h (2 Bft) O-NO 67 0 min 0,0 UV-I -15,0 C -19,9 C 6,8 km/h (2 Bft)
24.03.2013 03:30 -10,3 C 7,0 C -10,1 C -12,0 C -15,3 C 0,0 C 68 % 72 % 0 % 1023,9 hPa 0,0 l/m 6,6 km/h (2 Bft) O-NO 67 0 min 0,0 UV-I -15,0 C -20,0 C 8,9 km/h (2 Bft)
24.03.2013 03:35 -10,3 C 7,0 C -10,1 C -12,0 C -15,5 C 0,0 C 68 % 72 % 0 % 1023,8 hPa 0,0 l/m 6,9 km/h (2 Bft) NO 45 0 min 0,0 UV-I -15,0 C -20,4 C 6,0 km/h (2 Bft)
24.03.2013 03:40 -10,3 C 7,0 C -10,1 C -12,1 C -15,8 C 0,0 C 68 % 72 % 0 % 1023,8 hPa 0,0 l/m 7,6 km/h (2 Bft) O 90 0 min 0,0 UV-I -15,0 C -21,1 C 8,4 km/h (2 Bft)
24.03.2013 03:45 -10,3 C 7,0 C -10,1 C -12,1 C -15,6 C 0,0 C 68 % 72 % 0 % 1023,8 hPa 0,0 l/m 7,6 km/h (2 Bft) O-SO 112 0 min 0,0 UV-I -15,0 C -20,9 C 7,7 km/h (2 Bft)
24.03.2013 03:50 -10,3 C 7,0 C -10,3 C -12,1 C -15,6 C 0,0 C 68 % 72 % 0 % 1023,8 hPa 0,0 l/m 7,4 km/h (2 Bft) O-NO 67 0 min 0,0 UV-I -15,0 C -20,8 C 7,7 km/h (2 Bft)
24.03.2013 03:55 -10,4 C 7,0 C -10,3 C -12,1 C -15,6 C 0,0 C 68 % 72 % 0 % 1023,4 hPa 0,0 l/m 7,1 km/h (2 Bft) O-NO 67 0 min 0,0 UV-I -15,1 C -20,6 C 8,7 km/h (2 Bft)
24.03.2013 04:00 -10,4 C 7,0 C -10,3 C -12,0 C -15,2 C 0,0 C 68 % 73 % 0 % 1023,4 hPa 0,0 l/m 6,3 km/h (2 Bft) O-NO 67 0 min 0,0 UV-I -15,1 C -19,7 C 6,1 km/h (2 Bft)
24.03.2013 04:05 -10,5 C 7,0 C -10,4 C -12,0 C -15,1 C 0,0 C 68 % 73 % 0 % 1023,4 hPa 0,0 l/m 6,1 km/h (2 Bft) O-NO 67 0 min 0,0 UV-I -15,2 C -19,4 C 7,2 km/h (2 Bft)
24.03.2013 04:10 -10,5 C 7,0 C -10,4 C -12,1 C -15,2 C 0,0 C 68 % 72 % 0 % 1023,4 hPa 0,0 l/m 6,1 km/h (2 Bft) O-NO 67 0 min 0,0 UV-I -15,2 C -19,6 C 5,0 km/h (1 Bft)
24.03.2013 04:15 -10,5 C 7,0 C -10,4 C -12,0 C -14,9 C 0,0 C 69 % 73 % 0 % 1023,6 hPa 0,0 l/m 5,6 km/h (1 Bft) O 90 0 min 0,0 UV-I -15,1 C -18,9 C 6,3 km/h (2 Bft)
24.03.2013 04:20 -10,5 C 7,0 C -10,4 C -11,9 C -14,7 C 0,0 C 69 % 73 % 0 % 1023,6 hPa 0,0 l/m 5,3 km/h (1 Bft) O 90 0 min 0,0 UV-I -15,1 C -18,5 C 4,5 km/h (1 Bft)
24.03.2013 04:25 -10,5 C 7,0 C -10,4 C -11,8 C -14,3 C 0,0 C 69 % 73 % 0 % 1023,6 hPa 0,0 l/m 4,7 km/h (1 Bft) O-NO 67 0 min 0,0 UV-I -15,1 C -17,6 C 5,3 km/h (1 Bft)
24.03.2013 04:30 -10,5 C 7,0 C -10,3 C -11,6 C -13,8 C 0,0 C 69 % 73 % 0 % 1023,6 hPa 0,0 l/m 4,2 km/h (1 Bft) O-NO 67 0 min 0,0 UV-I -15,1 C -13,8 C 4,0 km/h (1 Bft)
24.03.2013 04:35 -10,5 C 7,0 C -10,4 C -11,4 C -13,1 C 0,0 C 70 % 73 % 0 % 1023,8 hPa 0,0 l/m 3,4 km/h (1 Bft) NO 45 0 min 0,0 UV-I -14,9 C -13,1 C 2,6 km/h (1 Bft)
24.03.2013 04:40 -10,5 C 7,0 C -10,4 C -11,4 C -13,1 C 0,0 C 69 % 73 % 0 % 1023,8 hPa 0,0 l/m 3,2 km/h (1 Bft) O-NO 67 0 min 0,0 UV-I -15,1 C -13,1 C 4,8 km/h (1 Bft)
24.03.2013 04:45 -10,5 C 7,0 C -10,4 C -11,5 C -13,5 C 0,0 C 69 % 73 % 0 % 1023,8 hPa 0,0 l/m 3,7 km/h (1 Bft) O-NO 67 0 min 0,0 UV-I -15,1 C -13,5 C 3,9 km/h (1 Bft)
24.03.2013 04:50 -10,5 C 7,0 C -10,4 C -11,7 C -14,2 C 0,0 C 69 % 73 % 0 % 1023,8 hPa 0,0 l/m 4,5 km/h (1 Bft) O 90 0 min 0,0 UV-I -15,1 C -14,2 C 6,3 km/h (2 Bft)
24.03.2013 04:55 -10,5 C 7,0 C -10,5 C -11,9 C -14,7 C 0,0 C 69 % 73 % 0 % 1023,8 hPa 0,0 l/m 5,3 km/h (1 Bft) O-NO 67 0 min 0,0 UV-I -15,1 C -18,5 C 6,0 km/h (2 Bft)
24.03.2013 05:00 -10,5 C 7,0 C -10,5 C -11,9 C -14,7 C 0,0 C 69 % 73 % 0 % 1023,8 hPa 0,0 l/m 5,1 km/h (1 Bft) O-SO 112 0 min 0,0 UV-I -15,1 C -18,3 C 6,0 km/h (2 Bft)
24.03.2013 05:05 -10,5 C 7,0 C -10,5 C -11,6 C -13,9 C 0,0 C 69 % 73 % 0 % 1023,8 hPa 0,0 l/m 3,9 km/h (1 Bft) O 90 0 min 0,0 UV-I -15,1 C -13,9 C 3,5 km/h (1 Bft)
24.03.2013 05:10 -10,7 C 7,0 C -10,5 C -11,5 C -13,2 C 0,0 C 69 % 73 % 0 % 1023,8 hPa 0,0 l/m 2,9 km/h (1 Bft) O-NO 67 0 min 0,0 UV-I -15,3 C -13,2 C 3,9 km/h (1 Bft)
24.03.2013 05:15 -10,8 C 7,0 C -10,7 C -11,4 C -12,6 C 0,0 C 69 % 73 % 0 % 1023,8 hPa 0,0 l/m 2,1 km/h (1 Bft) O-SO 112 0 min 0,0 UV-I -15,3 C -12,6 C 0,0 km/h (0 Bft)
24.03.2013 05:20 -10,9 C 7,0 C -10,7 C -11,5 C -12,8 C 0,0 C 69 % 73 % 0 % 1023,8 hPa 0,0 l/m 2,3 km/h (1 Bft) O 90 0 min 0,0 UV-I -15,4 C -12,8 C 4,2 km/h (1 Bft)
24.03.2013 05:25 -10,9 C 7,0 C -10,7 C -11,7 C -13,4 C 0,0 C 69 % 73 % 0 % 1023,8 hPa 0,0 l/m 2,6 km/h (1 Bft) NO 45 0 min 0,0 UV-I -15,4 C -13,4 C 3,4 km/h (1 Bft)
24.03.2013 05:30 -10,9 C 7,0 C -10,9 C -11,9 C -13,9 C 0,0 C 69 % 73 % 0 % 1023,8 hPa 0,0 l/m 3,1 km/h (1 Bft) O-NO 67 0 min 0,0 UV-I -15,4 C -13,9 C 3,9 km/h (1 Bft)
24.03.2013 05:35 -10,9 C 7,0 C -10,9 C -11,8 C -13,7 C 0,0 C 69 % 73 % 0 % 1023,9 hPa 0,0 l/m 2,7 km/h (1 Bft) O 90 0 min 0,0 UV-I -15,4 C -13,7 C 4,5 km/h (1 Bft)
24.03.2013 05:40 -10,9 C 7,0 C -10,9 C -11,9 C -13,9 C 0,0 C 69 % 74 % 0 % 1023,9 hPa 0,0 l/m 2,9 km/h (1 Bft) O-NO 67 0 min 0,0 UV-I -15,4 C -13,9 C 4,3 km/h (1 Bft)
24.03.2013 05:45 -11,1 C 7,0 C -10,9 C -12,1 C -14,1 C 0,0 C 70 % 74 % 0 % 1023,9 hPa 0,0 l/m 3,1 km/h (1 Bft) NO 45 0 min 0,0 UV-I -15,5 C -14,1 C 4,0 km/h (1 Bft)
24.03.2013 05:50 -11,1 C 7,0 C -10,9 C -11,9 C -13,5 C 0,0 C 70 % 74 % 0 % 1023,9 hPa 0,0 l/m 2,4 km/h (1 Bft) O 90 0 min 0,0 UV-I -15,5 C -13,5 C 3,2 km/h (1 Bft)
24.03.2013 05:55 -11,2 C 7,0 C -10,9 C -11,9 C -13,4 C 0,0 C 70 % 74 % 0 % 1023,9 hPa 0,0 l/m 2,3 km/h (1 Bft) O-NO 67 0 min 0,0 UV-I -15,6 C -13,4 C 3,2 km/h (1 Bft)
24.03.2013 06:00 -11,1 C 7,0 C -10,9 C -11,9 C -13,4 C 0,0 C 70 % 74 % 0 % 1023,9 hPa 0,0 l/m 2,3 km/h (1 Bft) O-NO 67 0 min 0,0 UV-I -15,5 C -13,4 C 1,8 km/h (1 Bft)
24.03.2013 06:05 -11,3 C 7,0 C -11,1 C -12,1 C -13,8 C 0,0 C 70 % 74 % 0 % 1023,9 hPa 0,0 l/m 2,6 km/h (1 Bft) O-NO 67 0 min 0,0 UV-I -15,7 C -13,8 C 3,4 km/h (1 Bft)
24.03.2013 06:10 -11,3 C 7,0 C -11,1 C -12,1 C -13,8 C 0,0 C 70 % 74 % 0 % 1023,9 hPa 0,0 l/m 2,6 km/h (1 Bft) O-NO 67 0 min 0,0 UV-I -15,7 C -13,8 C 3,2 km/h (1 Bft)
24.03.2013 06:15 -11,3 C 7,0 C -11,2 C -12,1 C -13,6 C 0,0 C 71 % 74 % 0 % 1023,8 hPa 0,0 l/m 2,4 km/h (1 Bft) O-SO 112 0 min 0,0 UV-I -15,5 C -13,6 C 2,9 km/h (1 Bft)
24.03.2013 06:20 -11,3 C 7,0 C -11,2 C -12,2 C -14,0 C 0,0 C 71 % 74 % 0 % 1023,8 hPa 0,0 l/m 2,7 km/h (1 Bft) NO 45 0 min 0,0 UV-I -15,5 C -14,0 C 8,9 km/h (2 Bft)
24.03.2013 06:25 -11,3 C 7,0 C -11,2 C -12,2 C -14,1 C 0,0 C 71 % 74 % 0 % 1023,8 hPa 0,0 l/m 2,9 km/h (1 Bft) O-NO 67 0 min 0,0 UV-I -15,5 C -14,1 C 2,7 km/h (1 Bft)
24.03.2013 06:30 -11,3 C 7,0 C -11,1 C -11,9 C -13,2 C 0,0 C 71 % 74 % 0 % 1023,8 hPa 0,0 l/m 2,7 km/h (1 Bft) O-NO 67 0 min 0,0 UV-I -15,5 C -13,2 C 2,3 km/h (1 Bft)
24.03.2013 06:35 -11,2 C 7,0 C -10,9 C -11,4 C -11,9 C 0,0 C 71 % 74 % 0 % 1023,8 hPa 0,0 l/m 2,7 km/h (1 Bft) O-NO 67 0 min 0,0 UV-I -15,4 C -11,9 C 3,4 km/h (1 Bft)
24.03.2013 06:41 -10,9 C 7,0 C -10,8 C -11,1 C -11,4 C 0,0 C 71 % 74 % 0 % 1023,8 hPa 0,0 l/m 2,9 km/h (1 Bft) N 0 0 min 0,0 UV-I -15,1 C -11,4 C 3,9 km/h (1 Bft)
24.03.2013 07:00 -10,5 C 7,0 C -9,9 C -10,1 C -10,1 C 0,4 C 69 % 72 % 11 % 1023,8 hPa 0,0 l/m 4,8 km/h (1 Bft) O 90 0 min 0,0 UV-I -15,1 C -12,9 C 4,0 km/h (1 Bft)
24.03.2013 07:05 -10,4 C 7,0 C -9,7 C -9,6 C -9,6 C 0,8 C 69 % 71 % 21 % 1023,8 hPa 0,0 l/m 4,3 km/h (1 Bft) NO 45 0 min 0,0 UV-I -15,0 C -9,6 C 3,5 km/h (1 Bft)
24.03.2013 07:10 -10,3 C 7,0 C -9,7 C -9,0 C -9,0 C 1,3 C 69 % 71 % 34 % 1023,8 hPa 0,0 l/m 4,2 km/h (1 Bft) O 90 0 min 0,0 UV-I -14,9 C -9,0 C 4,5 km/h (1 Bft)
24.03.2013 07:15 -10,1 C 7,0 C -9,7 C -8,5 C -8,5 C 1,6 C 68 % 70 % 42 % 1023,8 hPa 0,0 l/m 4,0 km/h (1 Bft) O-NO 67 0 min 0,0 UV-I -14,9 C -8,5 C 4,5 km/h (1 Bft)
24.03.2013 07:20 -10,1 C 7,0 C -9,7 C -8,7 C -8,7 C 1,4 C 68 % 70 % 37 % 1023,8 hPa 0,0 l/m 4,2 km/h (1 Bft) O-NO 67 0 min 0,0 UV-I -14,9 C -8,7 C 6,4 km/h (2 Bft)
24.03.2013 07:25 -10,1 C 7,0 C -9,7 C -9,5 C -9,5 C 0,6 C 67 % 70 % 16 % 1023,8 hPa 0,0 l/m 5,0 km/h (1 Bft) NO 45 0 min 0,0 UV-I -15,0 C -12,4 C 6,1 km/h (2 Bft)
24.03.2013 07:30 -9,9 C 7,0 C -9,6 C -9,5 C -9,5 C 0,4 C 68 % 70 % 11 % 1023,8 hPa 0,0 l/m 5,1 km/h (1 Bft) O-NO 67 0 min 0,0 UV-I -14,7 C -12,4 C 8,7 km/h (2 Bft)
24.03.2013 07:35 -9,7 C 7,0 C -9,5 C -8,8 C -8,8 C 0,9 C 67 % 70 % 24 % 1023,8 hPa 0,0 l/m 5,0 km/h (1 Bft) O-SO 112 0 min 0,0 UV-I -14,6 C -11,6 C 6,1 km/h (2 Bft)
24.03.2013 07:40 -9,7 C 7,0 C -9,3 C -8,5 C -8,5 C 1,2 C 67 % 70 % 32 % 1023,8 hPa 0,0 l/m 5,0 km/h (1 Bft) NO 45 0 min 0,0 UV-I -14,6 C -11,2 C 6,9 km/h (2 Bft)
24.03.2013 07:45 -9,7 C 7,0 C -9,3 C -8,3 C -8,3 C 1,4 C 67 % 70 % 37 % 1023,8 hPa 0,0 l/m 5,3 km/h (1 Bft) O 90 0 min 0,0 UV-I -14,6 C -11,2 C 5,1 km/h (1 Bft)
24.03.2013 07:50 -9,5 C 7,0 C -9,2 C -7,7 C -7,7 C 1,8 C 67 % 70 % 47 % 1023,8 hPa 0,0 l/m 5,1 km/h (1 Bft) O-NO 67 0 min 0,0 UV-I -14,5 C -10,4 C 7,1 km/h (2 Bft)
24.03.2013 07:55 -9,3 C 7,0 C -9,1 C -6,9 C -6,9 C 2,4 C 67 % 70 % 63 % 1023,9 hPa 0,0 l/m 5,0 km/h (1 Bft) O-NO 67 0 min 0,0 UV-I -14,3 C -9,4 C 6,1 km/h (2 Bft)
24.03.2013 08:00 -9,3 C 7,0 C -9,1 C -6,9 C -6,9 C 2,4 C 66 % 69 % 63 % 1023,9 hPa 0,0 l/m 5,5 km/h (1 Bft) O-NO 67 0 min 0,0 UV-I -14,4 C -9,7 C 7,4 km/h (2 Bft)
24.03.2013 08:05 -9,3 C 6,9 C -8,9 C -7,8 C -7,8 C 1,5 C 66 % 69 % 39 % 1023,9 hPa 0,0 l/m 6,0 km/h (2 Bft) N-NO 22 0 min 0,0 UV-I -14,4 C -11,0 C 5,5 km/h (1 Bft)
24.03.2013 08:10 -9,2 C 6,9 C -8,9 C -8,2 C -8,2 C 1,0 C 66 % 69 % 26 % 1023,9 hPa 0,0 l/m 6,1 km/h (2 Bft) O-NO 67 0 min 0,0 UV-I -14,4 C -11,5 C 8,7 km/h (2 Bft)
24.03.2013 08:15 -8,9 C 6,9 C -8,5 C -7,9 C -7,9 C 1,0 C 65 % 69 % 26 % 1023,9 hPa 0,0 l/m 6,3 km/h (2 Bft) O 90 0 min 0,1 UV-I -14,3 C -11,3 C 8,7 km/h (2 Bft)
24.03.2013 08:20 -8,9 C 6,9 C -8,5 C -7,3 C -7,3 C 1,6 C 65 % 68 % 42 % 1023,9 hPa 0,0 l/m 6,0 km/h (2 Bft) O 90 0 min 0,1 UV-I -14,3 C -10,4 C 8,0 km/h (2 Bft)
24.03.2013 08:25 -8,7 C 6,9 C -8,1 C -7,1 C -7,1 C 1,6 C 65 % 68 % 42 % 1023,9 hPa 0,0 l/m 5,8 km/h (2 Bft) O-NO 67 0 min 0,1 UV-I -14,1 C -10,1 C 6,4 km/h (2 Bft)
24.03.2013 08:30 -8,5 C 6,9 C -7,9 C -6,4 C -6,4 C 2,1 C 65 % 67 % 55 % 1023,9 hPa 0,0 l/m 5,6 km/h (1 Bft) O-NO 67 0 min 0,1 UV-I -13,9 C -9,2 C 6,9 km/h (2 Bft)
24.03.2013 08:35 -8,5 C 6,9 C -7,7 C -6,9 C -6,9 C 1,6 C 64 % 66 % 42 % 1023,9 hPa 0,0 l/m 6,1 km/h (2 Bft) O-SO 112 0 min 0,2 UV-I -14,1 C -10,0 C 10,8 km/h (2 Bft)
24.03.2013 08:40 -8,3 C 6,9 C -7,7 C -7,1 C -7,1 C 1,2 C 64 % 66 % 32 % 1023,9 hPa 0,0 l/m 6,8 km/h (2 Bft) O 90 0 min 0,2 UV-I -13,9 C -10,6 C 7,1 km/h (2 Bft)
24.03.2013 08:45 -8,3 C 6,9 C -7,6 C -7,0 C -7,0 C 1,3 C 64 % 66 % 34 % 1023,9 hPa 0,0 l/m 6,8 km/h (2 Bft) O-NO 67 0 min 0,2 UV-I -13,9 C -10,5 C 8,9 km/h (2 Bft)
24.03.2013 08:50 -8,3 C 6,9 C -7,5 C -7,1 C -7,1 C 1,2 C 64 % 65 % 32 % 1023,9 hPa 0,0 l/m 6,6 km/h (2 Bft) O-NO 67 0 min 0,3 UV-I -13,9 C -10,5 C 6,8 km/h (2 Bft)
24.03.2013 08:55 -8,3 C 6,9 C -7,3 C -8,6 C -9,2 C 0,0 C 63 % 64 % 0 % 1023,8 hPa 0,0 l/m 7,6 km/h (2 Bft) O-NO 67 0 min 0,3 UV-I -14,1 C -13,4 C 7,6 km/h (2 Bft)
24.03.2013 09:00 -8,1 C 6,9 C -7,3 C -8,2 C -9,7 C 0,0 C 63 % 64 % 0 % 1023,8 hPa 0,0 l/m 7,9 km/h (2 Bft) O 90 0 min 0,3 UV-I -13,9 C -14,1 C 9,0 km/h (2 Bft)
24.03.2013 09:05 -7,9 C 6,9 C -7,2 C -8,0 C -9,2 C 0,0 C 62 % 63 % 0 % 1023,8 hPa 0,0 l/m 7,9 km/h (2 Bft) O-NO 67 0 min 0,4 UV-I -13,9 C -13,5 C 14,5 km/h (3 Bft)
24.03.2013 09:10 -8,0 C 6,9 C -6,9 C -8,4 C -9,2 C 0,0 C 62 % 63 % 0 % 1023,8 hPa 0,0 l/m 8,5 km/h (2 Bft) O-NO 67 0 min 0,4 UV-I -14,0 C -13,7 C 8,9 km/h (2 Bft)
24.03.2013 09:15 -7,9 C 6,9 C -6,7 C -8,0 C -9,8 C 0,0 C 61 % 62 % 0 % 1023,8 hPa 0,0 l/m 10,1 km/h (2 Bft) NO 45 0 min 0,4 UV-I -14,1 C -15,1 C 17,1 km/h (3 Bft)
24.03.2013 09:20 -7,7 C 7,0 C -6,1 C -7,8 C -9,5 C 0,0 C 61 % 61 % 0 % 1023,8 hPa 0,0 l/m 10,3 km/h (2 Bft) O-NO 67 0 min 0,4 UV-I -13,9 C -14,8 C 13,0 km/h (3 Bft)
24.03.2013 09:25 -7,5 C 6,9 C -5,3 C -7,6 C -8,9 C 0,0 C 61 % 60 % 0 % 1023,8 hPa 0,0 l/m 8,9 km/h (2 Bft) O 90 0 min 0,4 UV-I -13,7 C -13,5 C 10,0 km/h (2 Bft)
24.03.2013 09:30 -7,3 C 6,9 C -4,5 C -7,2 C -8,2 C 0,1 C 61 % 57 % 3 % 1023,8 hPa 0,0 l/m 8,7 km/h (2 Bft) O-NO 67 0 min 0,5 UV-I -13,5 C -12,6 C 11,9 km/h (2 Bft)
24.03.2013 09:35 -7,3 C 7,0 C -3,5 C -6,9 C -8,1 C 0,4 C 60 % 55 % 11 % 1023,8 hPa 0,0 l/m 8,9 km/h (2 Bft) O-NO 67 0 min 0,6 UV-I -13,7 C -12,6 C 18,2 km/h (3 Bft)
24.03.2013 09:40 -7,2 C 7,0 C -3,3 C -6,9 C -8,3 C 0,3 C 59 % 52 % 8 % 1023,8 hPa 0,0 l/m 9,3 km/h (2 Bft) N-NW 337 0 min 0,6 UV-I -13,8 C -13,0 C 12,9 km/h (3 Bft)
24.03.2013 09:45 -6,9 C 7,0 C -3,5 C -6,7 C -7,8 C 0,2 C 59 % 52 % 5 % 1023,8 hPa 0,0 l/m 9,5 km/h (2 Bft) O-NO 67 0 min 0,6 UV-I -13,5 C -12,5 C 9,7 km/h (2 Bft)
24.03.2013 09:50 -6,8 C 7,0 C -3,5 C -6,2 C -7,1 C 0,6 C 59 % 53 % 16 % 1023,8 hPa 0,0 l/m 8,4 km/h (2 Bft) O-NO 67 0 min 0,7 UV-I -13,4 C -11,2 C 6,6 km/h (2 Bft)
24.03.2013 09:55 -6,7 C 7,0 C -3,3 C -6,8 C -7,1 C 0,0 C 58 % 52 % 0 % 1023,8 hPa 0,0 l/m 8,2 km/h (2 Bft) O-NO 67 0 min 0,7 UV-I -13,6 C -11,2 C 9,2 km/h (2 Bft)
24.03.2013 10:00 -6,5 C 7,0 C -3,3 C -6,0 C -7,2 C 0,5 C 58 % 53 % 13 % 1023,8 hPa 0,0 l/m 8,2 km/h (2 Bft) O 90 0 min 0,7 UV-I -13,4 C -11,3 C 8,2 km/h (2 Bft)
24.03.2013 10:05 -6,1 C 7,0 C -3,7 C -5,6 C -6,4 C 0,5 C 57 % 52 % 13 % 1023,8 hPa 0,0 l/m 7,7 km/h (2 Bft) O-NO 67 0 min 0,7 UV-I -13,2 C -10,1 C 10,5 km/h (2 Bft)
24.03.2013 10:10 -6,1 C 7,0 C -4,1 C -5,6 C -6,8 C 0,5 C 57 % 54 % 13 % 1023,8 hPa 0,0 l/m 7,7 km/h (2 Bft) O 90 0 min 0,8 UV-I -13,2 C -10,6 C 8,5 km/h (2 Bft)
24.03.2013 10:15 -6,0 C 6,9 C -4,4 C -5,6 C -6,7 C 0,4 C 57 % 55 % 11 % 1023,4 hPa 0,0 l/m 8,2 km/h (2 Bft) O-NO 67 0 min 0,9 UV-I -13,1 C -10,7 C 10,3 km/h (2 Bft)
24.03.2013 10:20 -5,9 C 6,9 C -4,5 C -5,6 C -6,8 C 0,3 C 55 % 55 % 8 % 1023,4 hPa 0,0 l/m 8,7 km/h (2 Bft) O 90 0 min 0,9 UV-I -13,5 C -11,0 C 10,9 km/h (2 Bft)
24.03.2013 10:25 -5,7 C 6,9 C -4,5 C -5,7 C -6,9 C 0,0 C 57 % 56 % 0 % 1023,4 hPa 0,0 l/m 8,0 km/h (2 Bft) O 90 0 min 1,0 UV-I -12,8 C -10,8 C 8,9 km/h (2 Bft)
24.03.2013 10:30 -5,6 C 6,9 C -4,5 C -5,9 C -6,4 C 0,0 C 55 % 56 % 0 % 1023,4 hPa 0,0 l/m 7,6 km/h (2 Bft) O-SO 112 0 min 0,9 UV-I -13,2 C -10,1 C 8,4 km/h (2 Bft)
24.03.2013 10:35 -5,3 C 6,9 C -4,5 C -5,4 C -5,5 C 0,0 C 55 % 56 % 0 % 1023,4 hPa 0,0 l/m 7,4 km/h (2 Bft) O 90 0 min 0,8 UV-I -12,9 C -9,0 C 7,6 km/h (2 Bft)
24.03.2013 10:40 -5,4 C 6,9 C -4,5 C -5,4 C -5,4 C 0,0 C 55 % 56 % 0 % 1023,4 hPa 0,0 l/m 7,6 km/h (2 Bft) O-NO 67 0 min 0,9 UV-I -13,0 C -8,9 C 8,5 km/h (2 Bft)
24.03.2013 10:45 -5,3 C 6,9 C -4,5 C -5,0 C -6,4 C 0,3 C 55 % 56 % 8 % 1023,4 hPa 0,0 l/m 8,2 km/h (2 Bft) O-NO 67 0 min 0,9 UV-I -12,9 C -10,3 C 10,1 km/h (2 Bft)
24.03.2013 10:50 -5,2 C 6,9 C -4,5 C -5,3 C -6,7 C 0,0 C 55 % 56 % 0 % 1023,4 hPa 0,0 l/m 8,5 km/h (2 Bft) O-NO 67 0 min 1,0 UV-I -12,8 C -10,8 C 11,3 km/h (2 Bft)
24.03.2013 10:55 -5,1 C 6,9 C -4,4 C -5,2 C -6,9 C 0,0 C 55 % 56 % 0 % 1023,4 hPa 0,0 l/m 9,8 km/h (2 Bft) O-NO 67 0 min 1,1 UV-I -12,7 C -11,5 C 9,0 km/h (2 Bft)
24.03.2013 11:00 -4,9 C 6,9 C -4,3 C -5,1 C -6,7 C 0,0 C 54 % 56 % 0 % 1023,4 hPa 0,0 l/m 9,7 km/h (2 Bft) O 90 0 min 1,0 UV-I -12,7 C -11,2 C 12,9 km/h (3 Bft)
24.03.2013 11:05 -4,8 C 6,9 C -3,9 C -4,9 C -6,1 C 0,0 C 55 % 57 % 0 % 1023,4 hPa 0,0 l/m 8,9 km/h (2 Bft) O-SO 112 0 min 1,0 UV-I -12,4 C -10,2 C 20,6 km/h (4 Bft)
24.03.2013 11:10 -4,7 C 6,9 C -3,5 C -4,5 C -5,4 C 0,2 C 53 % 55 % 5 % 1023,4 hPa 0,0 l/m 9,0 km/h (2 Bft) O-NO 67 0 min 1,0 UV-I -12,8 C -9,4 C 9,7 km/h (2 Bft)
24.03.2013 11:15 -4,5 C 6,9 C -1,3 C -4,8 C -5,4 C 0,0 C 51 % 50 % 0 % 1023,4 hPa 0,0 l/m 10,3 km/h (2 Bft) O-NO 67 0 min 1,2 UV-I -13,1 C -9,9 C 15,4 km/h (3 Bft)
24.03.2013 11:20 -4,5 C 6,9 C -1,1 C -4,0 C -5,1 C 0,5 C 51 % 48 % 13 % 1023,4 hPa 0,0 l/m 10,5 km/h (2 Bft) NO 45 0 min 1,4 UV-I -13,1 C -9,6 C 8,7 km/h (2 Bft)
24.03.2013 11:25 -4,3 C 6,9 C -1,5 C -3,8 C -4,9 C 0,5 C 50 % 46 % 13 % 1023,4 hPa 0,0 l/m 10,3 km/h (2 Bft) O-NO 67 0 min 1,3 UV-I -13,1 C -9,3 C 12,4 km/h (3 Bft)
24.03.2013 11:30 -4,1 C 6,9 C -1,7 C -3,4 C -4,3 C 0,7 C 50 % 47 % 18 % 1023,4 hPa 0,0 l/m 9,2 km/h (2 Bft) O-NO 67 0 min 1,3 UV-I -12,9 C -8,2 C 9,5 km/h (2 Bft)
24.03.2013 11:35 -3,9 C 6,9 C -0,3 C -2,5 C -3,1 C 1,4 C 49 % 46 % 37 % 1023,4 hPa 0,0 l/m 9,3 km/h (2 Bft) O 90 0 min 1,3 UV-I -13,0 C -6,8 C 14,0 km/h (3 Bft)
24.03.2013 11:40 -3,9 C 6,9 C -0,1 C -1,8 C -2,7 C 2,1 C 49 % 44 % 55 % 1023,4 hPa 0,0 l/m 9,7 km/h (2 Bft) O-NO 67 0 min 1,3 UV-I -13,0 C -6,5 C 17,4 km/h (3 Bft)
24.03.2013 11:45 -3,7 C 6,9 C 0,3 C -1,4 C -2,4 C 2,3 C 48 % 42 % 61 % 1023,4 hPa 0,0 l/m 10,0 km/h (2 Bft) O-NO 67 0 min 1,3 UV-I -13,1 C -6,2 C 9,3 km/h (2 Bft)
24.03.2013 11:50 -3,5 C 6,9 C 1,1 C -1,3 C -2,3 C 2,2 C 48 % 43 % 58 % 1023,4 hPa 0,0 l/m 9,8 km/h (2 Bft) O-NO 67 0 min 1,8 UV-I -12,9 C -6,0 C 16,3 km/h (3 Bft)
24.03.2013 11:55 -3,3 C 6,9 C 1,2 C -1,1 C -2,1 C 2,2 C 47 % 41 % 58 % 1022,5 hPa 0,0 l/m 10,0 km/h (2 Bft) O 90 0 min 2,0 UV-I -13,0 C -5,8 C 11,6 km/h (2 Bft)
24.03.2013 12:00 -3,3 C 6,9 C 1,3 C -1,1 C -2,2 C 2,2 C 47 % 42 % 58 % 1022,5 hPa 0,0 l/m 10,6 km/h (2 Bft) O-NO 67 0 min 2,1 UV-I -13,0 C -6,1 C 8,4 km/h (2 Bft)
24.03.2013 12:05 -3,2 C 6,9 C 1,6 C -1,0 C -1,9 C 2,2 C 47 % 40 % 58 % 1022,5 hPa 0,0 l/m 10,1 km/h (2 Bft) NO 45 0 min 2,1 UV-I -12,9 C -5,6 C 10,9 km/h (2 Bft)
24.03.2013 12:10 -3,2 C 6,9 C 1,3 C -1,0 C -2,2 C 2,2 C 47 % 40 % 58 % 1022,5 hPa 0,0 l/m 10,8 km/h (2 Bft) O-NO 67 0 min 2,1 UV-I -12,9 C -6,2 C 13,8 km/h (3 Bft)
24.03.2013 12:15 -2,9 C 6,9 C 1,2 C -0,9 C -1,8 C 2,0 C 47 % 42 % 53 % 1022,5 hPa 0,0 l/m 10,8 km/h (2 Bft) O 90 0 min 2,1 UV-I -12,6 C -5,7 C 13,5 km/h (3 Bft)
24.03.2013 12:20 -2,7 C 6,9 C 1,1 C -0,5 C -1,3 C 2,2 C 47 % 42 % 58 % 1022,5 hPa 0,0 l/m 9,8 km/h (2 Bft) NW 315 0 min 2,1 UV-I -12,4 C -4,8 C 15,1 km/h (3 Bft)
24.03.2013 12:25 -2,7 C 7,0 C 0,4 C -0,3 C -1,4 C 2,4 C 47 % 43 % 63 % 1022,5 hPa 0,0 l/m 10,3 km/h (2 Bft) S-SW 202 0 min 2,1 UV-I -12,4 C -5,1 C 7,7 km/h (2 Bft)
24.03.2013 12:30 -2,5 C 7,0 C 0,2 C -0,5 C -1,6 C 2,0 C 47 % 43 % 53 % 1022,5 hPa 0,0 l/m 10,6 km/h (2 Bft) O-NO 67 0 min 2,1 UV-I -12,2 C -5,4 C 10,1 km/h (2 Bft)
24.03.2013 12:35 -2,5 C 7,0 C 0,1 C -0,2 C -0,9 C 2,3 C 47 % 43 % 61 % 1022,5 hPa 0,0 l/m 9,7 km/h (2 Bft) O 90 0 min 2,1 UV-I -12,2 C -4,3 C 12,1 km/h (2 Bft)
24.03.2013 12:41 -2,5 C 7,0 C 0,1 C -0,9 C -0,9 C 1,6 C 46 % 42 % 42 % 1022,5 hPa 0,0 l/m 10,0 km/h (2 Bft) N 0 0 min 2,0 UV-I -12,5 C -4,4 C 15,8 km/h (3 Bft)
24.03.2013 13:00 -2,1 C 7,0 C 0,7 C 0,2 C -0,7 C 2,3 C 47 % 44 % 61 % 1021,9 hPa 0,0 l/m 10,3 km/h (2 Bft) NO 45 0 min 2,0 UV-I -11,9 C -4,2 C 6,6 km/h (2 Bft)
24.03.2013 13:05 -2,0 C 7,0 C 0,7 C 0,5 C -0,3 C 2,5 C 48 % 44 % 66 % 1021,9 hPa 0,0 l/m 9,8 km/h (2 Bft) NO 45 0 min 1,9 UV-I -11,5 C -3,6 C 11,6 km/h (2 Bft)
24.03.2013 13:10 -2,0 C 7,0 C 0,5 C 0,8 C 0,1 C 2,8 C 49 % 45 % 74 % 1021,9 hPa 0,0 l/m 8,5 km/h (2 Bft) O-NO 67 0 min 1,9 UV-I -11,3 C -2,8 C 8,5 km/h (2 Bft)
24.03.2013 13:15 -1,8 C 7,0 C 0,7 C 1,0 C 0,2 C 2,8 C 49 % 46 % 74 % 1021,9 hPa 0,0 l/m 9,2 km/h (2 Bft) N-NW 337 0 min 1,8 UV-I -11,1 C -2,9 C 12,1 km/h (2 Bft)
24.03.2013 13:20 -1,9 C 7,0 C 0,4 C 1,0 C 0,1 C 2,9 C 49 % 46 % 76 % 1021,9 hPa 0,0 l/m 9,7 km/h (2 Bft) O-NO 67 0 min 1,7 UV-I -11,2 C -3,1 C 16,1 km/h (3 Bft)
24.03.2013 13:25 -1,7 C 7,0 C 0,8 C 0,9 C -0,2 C 2,6 C 50 % 47 % 68 % 1021,9 hPa 0,0 l/m 10,5 km/h (2 Bft) O-NO 67 0 min 1,6 UV-I -10,7 C -3,7 C 19,5 km/h (3 Bft)
24.03.2013 13:30 -1,9 C 7,0 C 0,9 C 0,6 C -0,4 C 2,5 C 49 % 47 % 66 % 1021,9 hPa 0,0 l/m 10,5 km/h (2 Bft) O 90 0 min 1,6 UV-I -11,2 C -3,9 C 14,5 km/h (3 Bft)
24.03.2013 13:35 -1,7 C 7,0 C 0,8 C 0,6 C -0,3 C 2,3 C 49 % 46 % 61 % 1021,9 hPa 0,0 l/m 10,1 km/h (2 Bft) O-NO 67 0 min 1,5 UV-I -11,0 C -3,7 C 11,1 km/h (2 Bft)
24.03.2013 13:40 -1,9 C 7,0 C 0,3 C 0,4 C -0,6 C 2,3 C 49 % 47 % 61 % 1021,9 hPa 0,0 l/m 9,8 km/h (2 Bft) O-NO 67 0 min 1,5 UV-I -11,2 C -4,0 C 10,9 km/h (2 Bft)
24.03.2013 13:45 -2,0 C 7,0 C -0,4 C 0,1 C -1,1 C 2,1 C 49 % 48 % 55 % 1021,9 hPa 0,0 l/m 10,9 km/h (2 Bft) O-NO 67 0 min 1,5 UV-I -11,3 C -4,9 C 11,7 km/h (2 Bft)
24.03.2013 13:50 -1,9 C 7,0 C -0,5 C -1,1 C -1,1 C 0,8 C 49 % 49 % 21 % 1021,9 hPa 0,0 l/m 10,9 km/h (2 Bft) O-NO 67 0 min 1,4 UV-I -11,2 C -4,9 C 12,6 km/h (3 Bft)
24.03.2013 13:55 -1,7 C 7,0 C -0,8 C 0,2 C -0,7 C 1,9 C 49 % 49 % 50 % 1021,9 hPa 0,0 l/m 10,5 km/h (2 Bft) O-NO 67 0 min 1,5 UV-I -11,0 C -4,3 C 10,9 km/h (2 Bft)
24.03.2013 14:00 -1,9 C 7,0 C -0,9 C 0,3 C -0,8 C 2,2 C 49 % 50 % 58 % 1021,9 hPa 0,0 l/m 10,8 km/h (2 Bft) O-NO 67 0 min 1,5 UV-I -11,2 C -4,5 C 16,9 km/h (3 Bft)
24.03.2013 14:05 -1,7 C 7,0 C -0,9 C 0,1 C -1,1 C 1,8 C 50 % 51 % 47 % 1021,9 hPa 0,0 l/m 11,1 km/h (2 Bft) O 90 0 min 1,4 UV-I -10,7 C -4,9 C 12,1 km/h (2 Bft)
24.03.2013 14:10 -1,7 C 7,0 C -1,1 C 0,1 C -0,8 C 1,8 C 50 % 51 % 47 % 1021,9 hPa 0,0 l/m 10,6 km/h (2 Bft) O-NO 67 0 min 1,4 UV-I -10,7 C -4,4 C 8,9 km/h (2 Bft)
24.03.2013 14:15 -1,7 C 7,0 C -0,9 C 0,5 C -0,3 C 2,2 C 50 % 51 % 58 % 1021,4 hPa 0,0 l/m 10,1 km/h (2 Bft) O-NO 67 0 min 1,3 UV-I -10,7 C -3,7 C 16,3 km/h (3 Bft)
24.03.2013 14:20 -1,7 C 7,0 C -1,1 C -0,3 C -0,3 C 1,4 C 49 % 51 % 37 % 1021,4 hPa 0,0 l/m 10,1 km/h (2 Bft) O-NO 67 0 min 1,3 UV-I -11,0 C -3,7 C 15,3 km/h (3 Bft)
24.03.2013 14:25 -1,7 C 7,0 C -1,2 C 0,4 C -0,9 C 2,1 C 49 % 52 % 55 % 1021,4 hPa 0,0 l/m 11,3 km/h (2 Bft) O 90 0 min 1,3 UV-I -11,0 C -4,7 C 8,5 km/h (2 Bft)
24.03.2013 14:30 -1,6 C 7,0 C -1,1 C 0,2 C -0,7 C 1,8 C 50 % 52 % 47 % 1021,4 hPa 0,0 l/m 10,8 km/h (2 Bft) O 90 0 min 1,2 UV-I -10,6 C -4,4 C 10,8 km/h (2 Bft)
24.03.2013 14:35 -1,3 C 7,0 C -0,9 C 0,7 C 0,1 C 2,0 C 50 % 52 % 53 % 1021,4 hPa 0,0 l/m 9,7 km/h (2 Bft) O-NO 67 0 min 1,1 UV-I -10,4 C -3,1 C 11,3 km/h (2 Bft)
24.03.2013 14:40 -1,5 C 7,0 C -1,2 C 0,8 C -0,4 C 2,3 C 49 % 51 % 61 % 1021,4 hPa 0,0 l/m 10,9 km/h (2 Bft) O-SO 112 0 min 1,1 UV-I -10,8 C -4,0 C 25,7 km/h (4 Bft)
24.03.2013 14:45 -1,7 C 7,0 C -1,3 C 0,2 C -1,2 C 1,9 C 48 % 51 % 50 % 1021,4 hPa 0,0 l/m 12,2 km/h (2 Bft) O-NO 67 0 min 1,0 UV-I -11,2 C -5,3 C 10,3 km/h (2 Bft)
24.03.2013 14:50 -1,7 C 7,0 C -1,2 C -0,2 C -1,4 C 1,5 C 49 % 52 % 39 % 1021,4 hPa 0,0 l/m 12,9 km/h (3 Bft) O 90 0 min 0,9 UV-I -11,0 C -5,7 C 15,0 km/h (3 Bft)
24.03.2013 14:55 -1,6 C 7,0 C -1,2 C -0,3 C -1,5 C 1,3 C 49 % 52 % 34 % 1021,4 hPa 0,0 l/m 12,6 km/h (3 Bft) O 90 0 min 0,9 UV-I -10,9 C -5,8 C 10,1 km/h (2 Bft)
24.03.2013 15:00 -1,5 C 7,0 C -1,1 C -0,4 C -1,6 C 1,1 C 49 % 52 % 29 % 1021,4 hPa 0,0 l/m 12,9 km/h (3 Bft) O 90 0 min 0,7 UV-I -10,8 C -5,9 C 12,9 km/h (3 Bft)
24.03.2013 15:05 -1,5 C 7,0 C -1,3 C -0,7 C -2,2 C 0,8 C 49 % 53 % 21 % 1021,4 hPa 0,0 l/m 14,3 km/h (3 Bft) O 90 0 min 0,7 UV-I -10,8 C -7,0 C 18,2 km/h (3 Bft)
24.03.2013 15:10 -1,6 C 7,0 C -1,4 C -1,0 C -2,4 C 0,6 C 49 % 53 % 16 % 1021,4 hPa 0,0 l/m 14,8 km/h (3 Bft) NO 45 0 min 0,7 UV-I -10,9 C -7,3 C 14,5 km/h (3 Bft)
24.03.2013 15:15 -1,5 C 7,0 C -1,3 C -0,9 C -2,1 C 0,6 C 49 % 53 % 16 % 1021,4 hPa 0,0 l/m 13,7 km/h (3 Bft) O-NO 67 0 min 0,7 UV-I -10,8 C -6,7 C 30,4 km/h (5 Bft)
24.03.2013 15:20 -1,5 C 7,0 C -1,3 C -1,7 C -2,1 C 0,0 C 49 % 53 % 0 % 1021,4 hPa 0,0 l/m 13,8 km/h (3 Bft) O-NO 67 0 min 0,7 UV-I -10,8 C -6,8 C 11,4 km/h (2 Bft)
24.03.2013 15:25 -1,3 C 7,0 C -1,1 C -0,6 C -1,6 C 0,7 C 51 % 55 % 18 % 1021,4 hPa 0,0 l/m 12,7 km/h (3 Bft) O-NO 67 0 min 0,5 UV-I -10,1 C -5,9 C 14,8 km/h (3 Bft)
24.03.2013 15:30 -1,5 C 7,0 C -1,3 C -0,4 C -1,4 C 1,1 C 50 % 54 % 29 % 1021,4 hPa 0,0 l/m 11,3 km/h (2 Bft) O-NO 67 0 min 0,4 UV-I -10,5 C -5,3 C 14,5 km/h (3 Bft)
24.03.2013 15:35 -1,5 C 7,0 C -1,3 C -0,5 C -1,9 C 1,0 C 50 % 54 % 26 % 1020,9 hPa 0,0 l/m 13,0 km/h (3 Bft) O-NO 67 0 min 0,4 UV-I -10,5 C -6,3 C 12,2 km/h (2 Bft)
24.03.2013 15:40 -1,6 C 7,0 C -1,3 C -0,8 C -2,1 C 0,8 C 50 % 55 % 21 % 1020,9 hPa 0,0 l/m 13,0 km/h (3 Bft) NO 45 0 min 0,3 UV-I -10,6 C -6,6 C 14,6 km/h (3 Bft)
24.03.2013 15:45 -1,5 C 7,0 C -1,3 C -0,6 C -1,4 C 0,9 C 51 % 56 % 24 % 1020,9 hPa 0,0 l/m 10,9 km/h (2 Bft) O-NO 67 0 min 0,3 UV-I -10,3 C -5,2 C 12,6 km/h (3 Bft)
24.03.2013 15:50 -1,5 C 7,0 C -1,3 C -1,4 C -1,4 C 0,1 C 52 % 56 % 3 % 1020,9 hPa 0,0 l/m 10,8 km/h (2 Bft) O-SO 112 0 min 0,3 UV-I -10,0 C -5,2 C 10,0 km/h (2 Bft)
24.03.2013 15:55 -1,5 C 7,0 C -1,3 C -0,5 C -1,7 C 1,0 C 52 % 56 % 26 % 1020,9 hPa 0,0 l/m 11,3 km/h (2 Bft) O-NO 67 0 min 0,2 UV-I -10,0 C -5,7 C 12,2 km/h (2 Bft)
24.03.2013 16:00 -1,5 C 7,0 C -1,3 C -0,5 C -1,5 C 1,0 C 53 % 56 % 26 % 1020,9 hPa 0,0 l/m 10,5 km/h (2 Bft) O-NO 67 0 min 0,2 UV-I -9,8 C -5,2 C 9,5 km/h (2 Bft)
24.03.2013 16:05 -1,5 C 7,0 C -1,3 C -0,5 C -1,6 C 1,0 C 52 % 56 % 26 % 1020,9 hPa 0,0 l/m 10,8 km/h (2 Bft) O-NO 67 0 min 0,1 UV-I -10,0 C -5,4 C 10,1 km/h (2 Bft)
24.03.2013 16:10 -1,6 C 6,9 C -1,5 C -0,8 C -2,1 C 0,8 C 51 % 56 % 21 % 1020,9 hPa 0,0 l/m 11,6 km/h (2 Bft) O-NO 67 0 min 0,1 UV-I -10,4 C -6,2 C 15,3 km/h (3 Bft)
24.03.2013 16:15 -1,6 C 7,0 C -1,5 C -1,2 C -2,5 C 0,4 C 51 % 56 % 11 % 1021,1 hPa 0,0 l/m 12,1 km/h (2 Bft) NO 45 0 min 0,1 UV-I -10,4 C -6,9 C 13,5 km/h (3 Bft)
24.03.2013 16:20 -1,7 C 6,9 C -1,5 C -1,4 C -2,7 C 0,3 C 51 % 55 % 8 % 1021,1 hPa 0,0 l/m 12,6 km/h (3 Bft) O-SO 112 0 min 0,1 UV-I -10,5 C -7,2 C 17,4 km/h (3 Bft)
24.03.2013 16:25 -1,7 C 6,9 C -1,5 C -1,5 C -2,6 C 0,2 C 52 % 56 % 5 % 1021,1 hPa 0,0 l/m 11,7 km/h (2 Bft) O-NO 67 0 min 0,1 UV-I -10,2 C -6,9 C 9,8 km/h (2 Bft)
24.03.2013 16:30 -1,7 C 6,9 C -1,1 C -2,0 C -2,6 C 0,0 C 53 % 56 % 0 % 1021,1 hPa 0,0 l/m 11,1 km/h (2 Bft) O-NO 67 0 min 0,0 UV-I -10,0 C -6,7 C 11,6 km/h (2 Bft)
24.03.2013 16:35 -1,7 C 6,9 C -0,9 C -1,4 C -2,4 C 0,3 C 53 % 55 % 8 % 1020,9 hPa 0,0 l/m 10,3 km/h (2 Bft) O 90 0 min 0,0 UV-I -10,0 C -6,3 C 15,6 km/h (3 Bft)
24.03.2013 16:40 -1,8 C 6,9 C -1,1 C -1,5 C -2,7 C 0,3 C 53 % 55 % 8 % 1020,9 hPa 0,0 l/m 10,6 km/h (2 Bft) O-NO 67 0 min 0,0 UV-I -10,1 C -6,7 C 12,1 km/h (2 Bft)
24.03.2013 16:45 -1,9 C 6,9 C -1,3 C -1,9 C -3,3 C 0,0 C 53 % 56 % 0 % 1020,9 hPa 0,0 l/m 11,7 km/h (2 Bft) O-NO 67 0 min 0,0 UV-I -10,2 C -7,7 C 9,7 km/h (2 Bft)
24.03.2013 16:50 -1,9 C 6,9 C -1,6 C -2,0 C -3,4 C 0,0 C 53 % 56 % 0 % 1020,9 hPa 0,0 l/m 11,9 km/h (2 Bft) O-NO 67 0 min 0,0 UV-I -10,2 C -7,9 C 13,0 km/h (3 Bft)
24.03.2013 16:55 -1,9 C 6,9 C -1,7 C -2,1 C -3,9 C 0,0 C 53 % 56 % 0 % 1020,9 hPa 0,0 l/m 11,3 km/h (2 Bft) O-NO 67 0 min 0,0 UV-I -10,2 C -8,3 C 14,8 km/h (3 Bft)
24.03.2013 17:00 -2,0 C 6,9 C -1,9 C -2,3 C -4,2 C 0,0 C 54 % 57 % 0 % 1020,9 hPa 0,0 l/m 10,1 km/h (2 Bft) O 90 0 min 0,0 UV-I -10,0 C -8,4 C 14,5 km/h (3 Bft)
24.03.2013 17:05 -2,1 C 6,9 C -1,9 C -2,4 C -4,1 C 0,0 C 54 % 57 % 0 % 1020,9 hPa 0,0 l/m 9,7 km/h (2 Bft) O-NO 67 0 min 0,0 UV-I -10,1 C -8,1 C 15,3 km/h (3 Bft)
24.03.2013 17:10 -2,1 C 6,9 C -2,1 C -2,5 C -4,8 C 0,0 C 54 % 58 % 0 % 1020,9 hPa 0,0 l/m 11,7 km/h (2 Bft) O-NO 67 0 min 0,0 UV-I -10,1 C -9,5 C 17,2 km/h (3 Bft)
24.03.2013 17:15 -2,1 C 6,9 C -2,1 C -3,0 C -4,8 C 0,0 C 55 % 58 % 0 % 1020,9 hPa 0,0 l/m 11,6 km/h (2 Bft) O-NO 67 0 min 0,0 UV-I -9,9 C -9,5 C 10,0 km/h (2 Bft)
24.03.2013 17:20 -2,1 C 6,9 C -2,1 C -2,5 C -4,3 C 0,0 C 55 % 59 % 0 % 1020,9 hPa 0,0 l/m 10,6 km/h (2 Bft) O-SO 112 0 min 0,0 UV-I -9,9 C -8,6 C 18,8 km/h (3 Bft)
24.03.2013 17:25 -2,1 C 6,9 C -2,1 C -2,8 C -4,3 C 0,0 C 55 % 59 % 0 % 1020,9 hPa 0,0 l/m 10,6 km/h (2 Bft) O-SO 112 0 min 0,0 UV-I -9,9 C -8,6 C 13,4 km/h (3 Bft)
24.03.2013 17:30 -2,3 C 6,9 C -2,3 C -2,6 C -4,4 C 0,0 C 55 % 59 % 0 % 1020,9 hPa 0,0 l/m 10,9 km/h (2 Bft) O-NO 67 0 min 0,0 UV-I -10,1 C -8,8 C 15,9 km/h (3 Bft)
24.03.2013 17:35 -2,3 C 7,0 C -2,3 C -2,7 C -4,8 C 0,0 C 55 % 60 % 0 % 1020,8 hPa 0,0 l/m 11,7 km/h (2 Bft) O-NO 67 0 min 0,0 UV-I -10,1 C -9,5 C 11,9 km/h (2 Bft)
24.03.2013 17:40 -2,3 C 7,0 C -2,3 C -2,7 C -4,9 C 0,0 C 56 % 60 % 0 % 1020,8 hPa 0,0 l/m 11,1 km/h (2 Bft) O 90 0 min 0,0 UV-I -9,9 C -9,5 C 15,3 km/h (3 Bft)
24.03.2013 17:45 -2,3 C 6,9 C -2,5 C -2,7 C -4,7 C 0,0 C 56 % 60 % 0 % 1020,8 hPa 0,0 l/m 9,5 km/h (2 Bft) O-NO 67 0 min 0,0 UV-I -9,9 C -8,8 C 10,9 km/h (2 Bft)
24.03.2013 17:50 -2,5 C 7,0 C -2,6 C -3,2 C -4,7 C 0,0 C 57 % 61 % 0 % 1020,8 hPa 0,0 l/m 9,0 km/h (2 Bft) NO 45 0 min 0,0 UV-I -9,8 C -8,6 C 9,0 km/h (2 Bft)
24.03.2013 17:55 -2,5 C 6,9 C -2,7 C -3,0 C -5,3 C 0,0 C 56 % 61 % 0 % 1020,8 hPa 0,0 l/m 10,0 km/h (2 Bft) O-SO 112 0 min 0,0 UV-I -10,0 C -9,6 C 10,6 km/h (2 Bft)
24.03.2013 18:00 -2,6 C 6,9 C -2,8 C -3,2 C -5,8 C 0,0 C 57 % 61 % 0 % 1020,8 hPa 0,0 l/m 10,3 km/h (2 Bft) NO 45 0 min 0,0 UV-I -9,9 C -10,3 C 9,7 km/h (2 Bft)
24.03.2013 18:05 -2,7 C 6,9 C -2,9 C -3,4 C -6,2 C 0,0 C 57 % 62 % 0 % 1020,8 hPa 0,0 l/m 9,8 km/h (2 Bft) O-NO 67 0 min 0,0 UV-I -10,0 C -10,7 C 7,7 km/h (2 Bft)
24.03.2013 18:10 -2,8 C 6,9 C -2,9 C -3,6 C -6,7 C 0,0 C 57 % 62 % 0 % 1020,8 hPa 0,0 l/m 9,8 km/h (2 Bft) O-NO 67 0 min 0,0 UV-I -10,1 C -11,3 C 10,6 km/h (2 Bft)
24.03.2013 18:15 -2,7 C 6,9 C -3,1 C -3,7 C -7,2 C 0,0 C 57 % 62 % 0 % 1020,9 hPa 0,0 l/m 10,0 km/h (2 Bft) O-NO 67 0 min 0,0 UV-I -10,0 C -11,9 C 13,8 km/h (3 Bft)
24.03.2013 18:20 -2,9 C 6,9 C -3,1 C -4,0 C -7,5 C 0,0 C 57 % 62 % 0 % 1020,9 hPa 0,0 l/m 10,1 km/h (2 Bft) O-SO 112 0 min 0,0 UV-I -10,2 C -12,3 C 16,4 km/h (3 Bft)
24.03.2013 18:25 -3,0 C 6,9 C -3,3 C -4,0 C -7,4 C 0,0 C 58 % 63 % 0 % 1020,9 hPa 0,0 l/m 9,5 km/h (2 Bft) O-NO 67 0 min 0,0 UV-I -10,1 C -12,0 C 12,9 km/h (3 Bft)
24.03.2013 18:30 -2,9 C 6,9 C -3,3 C -4,0 C -7,7 C 0,0 C 58 % 63 % 0 % 1020,9 hPa 0,0 l/m 9,8 km/h (2 Bft) O 90 0 min 0,0 UV-I -10,0 C -12,4 C 17,4 km/h (3 Bft)
24.03.2013 18:35 -3,1 C 6,9 C -3,4 C -4,2 C -8,1 C 0,0 C 58 % 63 % 0 % 1021,1 hPa 0,0 l/m 10,9 km/h (2 Bft) O-NO 67 0 min 0,0 UV-I -10,2 C -13,3 C 10,8 km/h (2 Bft)
24.03.2013 18:41 -3,1 C 6,9 C -3,4 C -4,8 C -8,1 C 0,0 C 58 % 63 % 0 % 1021,1 hPa 0,0 l/m 10,5 km/h (2 Bft) N 0 0 min 0,0 UV-I -10,2 C -13,2 C 9,5 km/h (2 Bft)
24.03.2013 19:00 -3,3 C 6,9 C -3,7 C -4,5 C -7,9 C 0,0 C 59 % 65 % 0 % 1021,1 hPa 0,0 l/m 8,4 km/h (2 Bft) O-NO 67 0 min 0,0 UV-I -10,1 C -12,2 C 7,6 km/h (2 Bft)
24.03.2013 19:05 -3,3 C 6,9 C -3,7 C -4,8 C -7,9 C 0,0 C 60 % 65 % 0 % 1021,1 hPa 0,0 l/m 8,4 km/h (2 Bft) O-NO 67 0 min 0,0 UV-I -9,9 C -12,2 C 11,4 km/h (2 Bft)
24.03.2013 19:10 -3,5 C 7,0 C -3,7 C -5,0 C -7,9 C 0,0 C 60 % 65 % 0 % 1021,1 hPa 0,0 l/m 8,4 km/h (2 Bft) O-NO 67 0 min 0,0 UV-I -10,1 C -12,2 C 10,5 km/h (2 Bft)
24.03.2013 19:15 -3,5 C 7,0 C -3,9 C -4,6 C -8,3 C 0,0 C 60 % 65 % 0 % 1021,3 hPa 0,0 l/m 9,8 km/h (2 Bft) O-NO 67 0 min 0,0 UV-I -10,1 C -13,2 C 7,4 km/h (2 Bft)
24.03.2013 19:20 -3,5 C 7,0 C -3,9 C -4,7 C -8,4 C 0,0 C 60 % 65 % 0 % 1021,3 hPa 0,0 l/m 9,7 km/h (2 Bft) O-SO 112 0 min 0,0 UV-I -10,1 C -13,2 C 10,8 km/h (2 Bft)
24.03.2013 19:25 -3,6 C 7,0 C -3,9 C -4,7 C -8,2 C 0,0 C 60 % 66 % 0 % 1021,3 hPa 0,0 l/m 9,0 km/h (2 Bft) O-SO 112 0 min 0,0 UV-I -10,2 C -12,8 C 8,5 km/h (2 Bft)
24.03.2013 19:30 -3,5 C 7,0 C -4,0 C -4,7 C -8,4 C 0,0 C 60 % 66 % 0 % 1021,3 hPa 0,0 l/m 9,5 km/h (2 Bft) N-NO 22 0 min 0,0 UV-I -10,1 C -13,2 C 8,4 km/h (2 Bft)
24.03.2013 19:35 -3,7 C 7,0 C -4,1 C -4,9 C -8,7 C 0,0 C 60 % 66 % 0 % 1021,1 hPa 0,0 l/m 10,0 km/h (2 Bft) O-NO 67 0 min 0,0 UV-I -10,3 C -13,7 C 17,4 km/h (3 Bft)
24.03.2013 19:40 -3,7 C 7,0 C -4,1 C -4,9 C -8,4 C 0,0 C 60 % 66 % 0 % 1021,1 hPa 0,0 l/m 9,3 km/h (2 Bft) NO 45 0 min 0,0 UV-I -10,3 C -13,1 C 10,1 km/h (2 Bft)
24.03.2013 19:45 -3,8 C 7,0 C -4,1 C -4,9 C -8,7 C 0,0 C 60 % 66 % 0 % 1021,1 hPa 0,0 l/m 9,5 km/h (2 Bft) NO 45 0 min 0,0 UV-I -10,4 C -13,5 C 14,3 km/h (3 Bft)
24.03.2013 19:50 -3,7 C 7,0 C -4,2 C -4,9 C -8,9 C 0,0 C 60 % 66 % 0 % 1021,1 hPa 0,0 l/m 10,5 km/h (2 Bft) O-NO 67 0 min 0,0 UV-I -10,3 C -14,1 C 16,7 km/h (3 Bft)
24.03.2013 19:55 -3,7 C 7,0 C -4,1 C -5,4 C -8,9 C 0,0 C 60 % 66 % 0 % 1021,6 hPa 0,0 l/m 10,3 km/h (2 Bft) O-NO 67 0 min 0,0 UV-I -10,3 C -14,0 C 11,9 km/h (2 Bft)
24.03.2013 20:00 -3,9 C 7,0 C -4,1 C -5,1 C -8,8 C 0,0 C 60 % 66 % 0 % 1021,6 hPa 0,0 l/m 10,0 km/h (2 Bft) O 90 0 min 0,0 UV-I -10,5 C -13,8 C 9,2 km/h (2 Bft)
24.03.2013 20:05 -3,9 C 7,0 C -4,3 C -5,1 C -9,1 C 0,0 C 61 % 66 % 0 % 1021,6 hPa 0,0 l/m 10,5 km/h (2 Bft) O 90 0 min 0,0 UV-I -10,3 C -14,4 C 17,2 km/h (3 Bft)
24.03.2013 20:10 -4,0 C 7,0 C -4,3 C -5,2 C -8,9 C 0,0 C 61 % 66 % 0 % 1021,6 hPa 0,0 l/m 10,0 km/h (2 Bft) O-NO 67 0 min 0,0 UV-I -10,4 C -13,9 C 10,9 km/h (2 Bft)
24.03.2013 20:15 -4,0 C 7,0 C -4,3 C -5,6 C -8,9 C 0,0 C 61 % 66 % 0 % 1021,7 hPa 0,0 l/m 10,0 km/h (2 Bft) O-NO 67 0 min 0,0 UV-I -10,4 C -13,9 C 12,1 km/h (2 Bft)
24.03.2013 20:20 -3,9 C 7,0 C -4,4 C -5,1 C -9,1 C 0,0 C 61 % 66 % 0 % 1021,7 hPa 0,0 l/m 10,3 km/h (2 Bft) N-NO 22 0 min 0,0 UV-I -10,3 C -14,3 C 12,4 km/h (3 Bft)
24.03.2013 20:25 -4,1 C 7,0 C -4,4 C -5,3 C -9,3 C 0,0 C 61 % 66 % 0 % 1021,7 hPa 0,0 l/m 10,9 km/h (2 Bft) O-NO 67 0 min 0,0 UV-I -10,5 C -14,7 C 12,9 km/h (3 Bft)
24.03.2013 20:30 -4,1 C 7,0 C -4,3 C -5,8 C -9,3 C 0,0 C 61 % 66 % 0 % 1021,7 hPa 0,0 l/m 10,9 km/h (2 Bft) O-NO 67 0 min 0,0 UV-I -10,5 C -14,7 C 14,6 km/h (3 Bft)
24.03.2013 20:35 -4,1 C 7,0 C -4,4 C -5,4 C -9,7 C 0,0 C 61 % 66 % 0 % 1021,7 hPa 0,0 l/m 12,2 km/h (2 Bft) O-NO 67 0 min 0,0 UV-I -10,5 C -15,6 C 18,3 km/h (3 Bft)
24.03.2013 20:40 -4,1 C 7,0 C -4,5 C -5,4 C -9,8 C 0,0 C 61 % 66 % 0 % 1021,7 hPa 0,0 l/m 12,2 km/h (2 Bft) O-NO 67 0 min 0,0 UV-I -10,5 C -15,7 C 18,7 km/h (3 Bft)
24.03.2013 20:45 -4,1 C 7,0 C -4,5 C -5,4 C -9,4 C 0,0 C 61 % 66 % 0 % 1021,7 hPa 0,0 l/m 10,8 km/h (2 Bft) O-NO 67 0 min 0,0 UV-I -10,5 C -14,8 C 12,7 km/h (3 Bft)
24.03.2013 20:50 -4,1 C 7,0 C -4,5 C -5,4 C -9,7 C 0,0 C 61 % 66 % 0 % 1021,7 hPa 0,0 l/m 11,6 km/h (2 Bft) O 90 0 min 0,0 UV-I -10,5 C -15,4 C 14,5 km/h (3 Bft)
24.03.2013 20:55 -4,1 C 7,0 C -4,5 C -6,0 C -9,7 C 0,0 C 61 % 67 % 0 % 1021,7 hPa 0,0 l/m 12,1 km/h (2 Bft) O-NO 67 0 min 0,0 UV-I -10,5 C -15,6 C 7,6 km/h (2 Bft)
24.03.2013 21:00 -4,3 C 7,0 C -4,6 C -6,1 C -9,7 C 0,0 C 62 % 67 % 0 % 1021,7 hPa 0,0 l/m 11,6 km/h (2 Bft) O-NO 67 0 min 0,0 UV-I -10,5 C -15,4 C 14,6 km/h (3 Bft)
24.03.2013 21:05 -4,3 C 7,0 C -4,5 C -6,1 C -9,7 C 0,0 C 62 % 67 % 0 % 1021,7 hPa 0,0 l/m 11,3 km/h (2 Bft) O-NO 67 0 min 0,0 UV-I -10,5 C -15,3 C 11,1 km/h (2 Bft)
24.03.2013 21:10 -4,3 C 7,0 C -4,6 C -6,1 C -9,7 C 0,0 C 62 % 67 % 0 % 1021,7 hPa 0,0 l/m 11,3 km/h (2 Bft) O-NO 67 0 min 0,0 UV-I -10,5 C -15,3 C 6,6 km/h (2 Bft)
24.03.2013 21:15 -4,4 C 7,0 C -4,7 C -6,2 C -9,7 C 0,0 C 63 % 68 % 0 % 1021,7 hPa 0,0 l/m 11,3 km/h (2 Bft) O-NO 67 0 min 0,0 UV-I -10,4 C -15,3 C 11,9 km/h (2 Bft)
24.03.2013 21:20 -4,3 C 7,0 C -4,7 C -5,6 C -9,9 C 0,0 C 63 % 68 % 0 % 1021,7 hPa 0,0 l/m 11,7 km/h (2 Bft) O-NO 67 0 min 0,0 UV-I -10,3 C -15,7 C 15,6 km/h (3 Bft)
24.03.2013 21:25 -4,5 C 7,0 C -4,7 C -5,8 C -10,1 C 0,0 C 63 % 69 % 0 % 1021,7 hPa 0,0 l/m 12,2 km/h (2 Bft) O-NO 67 0 min 0,0 UV-I -10,5 C -16,1 C 15,6 km/h (3 Bft)
24.03.2013 21:30 -4,5 C 7,0 C -4,7 C -5,8 C -10,2 C 0,0 C 63 % 69 % 0 % 1021,7 hPa 0,0 l/m 12,7 km/h (3 Bft) O-NO 67 0 min 0,0 UV-I -10,5 C -16,4 C 17,1 km/h (3 Bft)
24.03.2013 21:35 -4,5 C 7,0 C -4,8 C -5,8 C -10,0 C 0,0 C 64 % 69 % 0 % 1021,7 hPa 0,0 l/m 12,1 km/h (2 Bft) O 90 0 min 0,0 UV-I -10,3 C -15,9 C 7,1 km/h (2 Bft)
24.03.2013 21:40 -4,5 C 7,0 C -4,9 C -5,8 C -9,8 C 0,0 C 64 % 69 % 0 % 1021,7 hPa 0,0 l/m 10,6 km/h (2 Bft) O-NO 67 0 min 0,0 UV-I -10,3 C -15,2 C 15,3 km/h (3 Bft)
24.03.2013 21:45 -4,5 C 7,0 C -4,9 C -5,7 C -9,3 C 0,0 C 65 % 70 % 0 % 1021,7 hPa 0,0 l/m 9,2 km/h (2 Bft) O-NO 67 0 min 0,0 UV-I -10,1 C -14,1 C 10,1 km/h (2 Bft)
24.03.2013 21:50 -4,7 C 7,0 C -4,9 C -5,8 C -9,6 C 0,0 C 65 % 70 % 0 % 1021,7 hPa 0,0 l/m 9,7 km/h (2 Bft) O 90 0 min 0,0 UV-I -10,2 C -14,7 C 7,2 km/h (2 Bft)
24.03.2013 21:55 -4,7 C 7,0 C -4,9 C -5,9 C -9,7 C 0,0 C 65 % 70 % 0 % 1021,7 hPa 0,0 l/m 9,3 km/h (2 Bft) O-NO 67 0 min 0,0 UV-I -10,2 C -14,6 C 13,8 km/h (3 Bft)
24.03.2013 22:00 -4,8 C 7,0 C -4,9 C -6,0 C -9,8 C 0,0 C 65 % 71 % 0 % 1021,7 hPa 0,0 l/m 9,8 km/h (2 Bft) O-NO 67 0 min 0,0 UV-I -10,3 C -15,0 C 8,4 km/h (2 Bft)
24.03.2013 22:05 -4,8 C 7,0 C -4,9 C -6,0 C -9,9 C 0,0 C 66 % 71 % 0 % 1021,7 hPa 0,0 l/m 10,0 km/h (2 Bft) O-NO 67 0 min 0,0 UV-I -10,2 C -15,1 C 10,0 km/h (2 Bft)
24.03.2013 22:10 -4,8 C 7,0 C -4,9 C -6,0 C -9,7 C 0,0 C 66 % 71 % 0 % 1021,7 hPa 0,0 l/m 9,5 km/h (2 Bft) NO 45 0 min 0,0 UV-I -10,2 C -14,7 C 14,3 km/h (3 Bft)
24.03.2013 22:15 -4,9 C 7,0 C -5,1 C -6,1 C -9,8 C 0,0 C 66 % 71 % 0 % 1021,6 hPa 0,0 l/m 9,5 km/h (2 Bft) O-NO 67 0 min 0,0 UV-I -10,2 C -14,8 C 10,1 km/h (2 Bft)
24.03.2013 22:20 -4,9 C 7,0 C -5,2 C -6,1 C -9,7 C 0,0 C 67 % 71 % 0 % 1021,6 hPa 0,0 l/m 9,0 km/h (2 Bft) O-NO 67 0 min 0,0 UV-I -10,1 C -14,5 C 8,9 km/h (2 Bft)
24.03.2013 22:25 -4,9 C 7,0 C -5,2 C -6,1 C -9,9 C 0,0 C 67 % 71 % 0 % 1021,6 hPa 0,0 l/m 9,7 km/h (2 Bft) O-NO 67 0 min 0,0 UV-I -10,1 C -15,0 C 12,6 km/h (3 Bft)
24.03.2013 22:30 -4,9 C 7,0 C -5,3 C -6,1 C -10,0 C 0,0 C 67 % 72 % 0 % 1021,6 hPa 0,0 l/m 9,7 km/h (2 Bft) O 90 0 min 0,0 UV-I -10,1 C -15,2 C 10,8 km/h (2 Bft)
24.03.2013 22:35 -4,9 C 7,0 C -5,3 C -6,1 C -9,9 C 0,0 C 67 % 72 % 0 % 1021,5 hPa 0,0 l/m 9,5 km/h (2 Bft) O-NO 67 0 min 0,0 UV-I -10,1 C -15,0 C 8,9 km/h (2 Bft)
24.03.2013 22:40 -5,1 C 7,0 C -5,3 C -6,7 C -9,9 C 0,0 C 67 % 72 % 0 % 1021,5 hPa 0,0 l/m 9,2 km/h (2 Bft) O-NO 67 0 min 0,0 UV-I -10,2 C -14,8 C 12,1 km/h (2 Bft)
24.03.2013 22:45 -5,1 C 7,0 C -5,4 C -6,2 C -9,7 C 0,0 C 67 % 73 % 0 % 1021,5 hPa 0,0 l/m 7,9 km/h (2 Bft) O-NO 67 0 min 0,0 UV-I -10,2 C -14,1 C 9,5 km/h (2 Bft)
24.03.2013 22:50 -5,2 C 7,0 C -5,3 C -6,7 C -9,7 C 0,0 C 68 % 73 % 0 % 1021,5 hPa 0,0 l/m 8,0 km/h (2 Bft) O-NO 67 0 min 0,0 UV-I -10,2 C -14,1 C 12,6 km/h (3 Bft)
24.03.2013 22:55 -5,2 C 7,0 C -5,3 C -6,3 C -9,9 C 0,0 C 68 % 73 % 0 % 1021,4 hPa 0,0 l/m 8,9 km/h (2 Bft) O-NO 67 0 min 0,0 UV-I -10,2 C -14,7 C 10,6 km/h (2 Bft)
24.03.2013 23:00 -5,1 C 7,0 C -5,3 C -6,3 C -10,0 C 0,0 C 68 % 73 % 0 % 1021,4 hPa 0,0 l/m 9,0 km/h (2 Bft) O-NO 67 0 min 0,0 UV-I -10,1 C -14,9 C 6,1 km/h (2 Bft)
24.03.2013 23:05 -5,3 C 7,0 C -5,5 C -6,4 C -9,8 C 0,0 C 68 % 73 % 0 % 1021,4 hPa 0,0 l/m 7,9 km/h (2 Bft) O 90 0 min 0,0 UV-I -10,3 C -14,2 C 8,0 km/h (2 Bft)
24.03.2013 23:10 -5,3 C 7,0 C -5,5 C -6,4 C -9,9 C 0,0 C 68 % 73 % 0 % 1021,4 hPa 0,0 l/m 7,9 km/h (2 Bft) O-NO 67 0 min 0,0 UV-I -10,3 C -14,3 C 7,9 km/h (2 Bft)
24.03.2013 23:15 -5,3 C 7,0 C -5,6 C -6,4 C -10,0 C 0,0 C 68 % 73 % 0 % 1021,8 hPa 0,0 l/m 8,2 km/h (2 Bft) O-NO 67 0 min 0,0 UV-I -10,3 C -14,6 C 8,7 km/h (2 Bft)
24.03.2013 23:20 -5,3 C 7,0 C -5,6 C -6,4 C -9,9 C 0,0 C 69 % 73 % 0 % 1021,8 hPa 0,0 l/m 8,0 km/h (2 Bft) NW 315 0 min 0,0 UV-I -10,1 C -14,4 C 9,3 km/h (2 Bft)
24.03.2013 23:25 -5,4 C 7,0 C -5,5 C -6,5 C -10,1 C 0,0 C 69 % 73 % 0 % 1021,8 hPa 0,0 l/m 8,4 km/h (2 Bft) O-NO 67 0 min 0,0 UV-I -10,2 C -14,8 C 5,5 km/h (1 Bft)
24.03.2013 23:30 -5,3 C 7,0 C -5,5 C -6,5 C -10,3 C 0,0 C 69 % 73 % 0 % 1021,8 hPa 0,0 l/m 9,0 km/h (2 Bft) O-NO 67 0 min 0,0 UV-I -10,1 C -15,2 C 10,5 km/h (2 Bft)
24.03.2013 23:35 -5,3 C 7,0 C -5,7 C -7,0 C -10,3 C 0,0 C 69 % 73 % 0 % 1021,8 hPa 0,0 l/m 9,2 km/h (2 Bft) O-NO 67 0 min 0,0 UV-I -10,1 C -15,3 C 9,8 km/h (2 Bft)
24.03.2013 23:40 -5,5 C 7,0 C -5,7 C -6,6 C -10,4 C 0,0 C 69 % 73 % 0 % 1021,8 hPa 0,0 l/m 9,3 km/h (2 Bft) O-NO 67 0 min 0,0 UV-I -10,3 C -15,5 C 10,8 km/h (2 Bft)
24.03.2013 23:45 -5,6 C 6,9 C -5,7 C -6,7 C -10,3 C 0,0 C 69 % 73 % 0 % 1021,8 hPa 0,0 l/m 8,5 km/h (2 Bft) O-NO 67 0 min 0,0 UV-I -10,4 C -15,0 C 7,2 km/h (2 Bft)
24.03.2013 23:50 -5,6 C 6,9 C -5,8 C -6,7 C -10,1 C 0,0 C 69 % 74 % 0 % 1021,8 hPa 0,0 l/m 7,7 km/h (2 Bft) O-NO 67 0 min 0,0 UV-I -10,4 C -14,5 C 8,4 km/h (2 Bft)
24.03.2013 23:55 -5,7 C 6,9 C -5,7 C -7,2 C -10,1 C 0,0 C 69 % 74 % 0 % 1021,3 hPa 0,0 l/m 7,6 km/h (2 Bft) O-NO 67 0 min 0,0 UV-I -10,5 C -14,4 C 5,8 km/h (2 Bft)
_ Min-Zeit 06:05 08:05 06:15 06:20 03:40 00:00 12:41 12:05 00:00 17:35 - 05:15 - - - 00:00 06:05 03:40 05:15
Minimum _ -11,3 C 6,9 C -11,2 C -12,2 C -15,8 C 0,0 C 46 % 40 % 0 % 1020,8 hPa - 2,1 km/h (1 Bft) - - - 0,0 UV-I -15,7 C -21,1 C 0,0 km/h (0 Bft)
_ Max-Zeit 14:35 00:00 12:05 13:15 13:15 13:20 06:15 05:40 13:20 00:15 00:00 15:10 - - 00:00 12:00 16:00 13:10 15:15
Maximum _ -1,3 C 7,1 C 1,6 C 1,0 C 0,2 C 2,9 C 71 % 74 % 76 % 1025,2 hPa 0,0 l/m 14,8 km/h
NO (3 Bft)
- - 0 min 2,1 UV-I -9,8 C -2,8 C 30,4 km/h
O-NO (5 Bft)
Durchschnitt _ -6,0 C 7,0 C -5,4 C -6,2 C -8,3 C 0,5 C 61 % 63 % 13 % 1022,7 hPa #0,0 l/m 8,2 km/h (2 Bft) O-NO - #0 min. 1,0 UV-I -12,5 C -11,9 C 9,7 km/h (2 Bft)
2013 www.wetterstation-wechselburg.de